DW7304 Weather Reports


Display with metric or nautical units.
time (UTC)temp
F
wind
direction
speed
MPH
gust
MPH
rain 1hr
in
rain 24hr
in
rain mn
in
humidity
%
barometer
mb
20260505033603 51 114 2.0 4.0 0.00 0.00 0.00 69 1009.9
20260505032703 51 112 3.0 4.0 0.00 0.00 0.00 70 1010.0
20260505031803 51 106 2.0 3.0 0.00 0.00 0.00 71 1009.9
20260505030903 51 88 2.0 2.0 0.00 0.00 0.00 71 1010.0
20260505030003 51 77 2.0 2.0 0.00 0.00 0.00 72 1010.1
20260505025403 50 77 2.0 2.0 0.00 0.00 0.00 72 1010.2
20260505024717 50 77 2.0 3.0 0.00 0.00 0.00 72 1010.2
20260505023603 50 86 2.0 2.0 0.00 0.00 0.00 73 1010.5
20260505022703 50 78 2.0 2.0 0.00 0.00 0.00 74 1010.6
20260505021803 50 75 2.0 3.0 0.00 0.00 0.00 74 1010.8
20260505020903 50 67 1.0 2.0 0.00 0.00 0.00 74 1010.9
20260505020003 50 50 2.0 3.0 0.00 0.00 0.00 74 1010.9
20260505015403 50 48 2.0 3.0 0.00 0.00 0.00 74 1011.0
20260505014503 50 67 1.0 2.0 0.00 0.00 0.00 74 1011.2
20260505013603 50 67 1.0 2.0 0.00 0.00 0.00 74 1011.2
20260505012703 50 67 1.0 2.0 0.00 0.00 0.00 74 1011.4
20260505011803 50 67 1.0 2.0 0.00 0.00 0.00 74 1011.5
20260505010903 50 52 2.0 2.0 0.00 0.00 0.00 73 1011.5
20260505010003 50 37 1.0 2.0 0.00 0.00 0.00 72 1011.6
20260505005403 50 26 1.0 2.0 0.00 0.00 0.00 72 1011.6
20260505004503 50 41 2.0 2.0 0.00 0.00 0.00 72 1011.8
20260505003603 50 68 1.0 2.0 0.00 0.00 0.00 72 1011.9
20260505002703 50 90 0.0 2.0 0.00 0.00 0.00 71 1012.1
20260505001803 50 93 1.0 2.0 0.00 0.00 0.00 71 1012.1
20260505000903 50 96 1.0 2.0 0.00 0.00 0.00 71 1012.3
20260505000003 50 80 1.0 2.0 0.00 0.00 0.00 71 1012.4
20260504235403 51 87 1.0 2.0 0.00 0.00 0.00 71 1012.4
20260504234504 51 103 1.0 2.0 0.00 0.00 0.00 70 1012.4
20260504233603 51 115 1.0 2.0 0.00 0.00 0.00 69 1012.5
20260504232703 51 112 1.0 2.0 0.00 0.00 0.00 69 1012.5
20260504231803 51 112 0.0 2.0 0.00 0.00 0.00 69 1012.6
20260504230903 51 270 0.0 2.0 0.00 0.00 0.00 68 1012.6
20260504230003 51 69 0.0 2.0 0.00 0.00 0.00 68 1012.8
20260504225403 51 87 1.0 2.0 0.00 0.00 0.00 67 1012.7
20260504224504 52 107 1.0 2.0 0.00 0.00 0.00 66 1012.7
20260504223603 52 117 1.0 3.0 0.00 0.00 0.00 66 1012.8
20260504222703 52 122 1.0 2.0 0.00 0.00 0.00 65 1012.9
20260504222017 53 122 1.0 2.0 0.00 0.00 0.00 65 1012.7
20260504220903 52 134 0.0 2.0 0.00 0.00 0.00 66 1012.8
20260504220218 52 128 0.0 1.0 0.00 0.00 0.00 65 1012.8
20260504215403 52 117 0.0 1.0 0.00 0.00 0.00 65 1013.0
20260504214503 52 112 0.0 1.0 0.00 0.00 0.00 65 1013.0
20260504213816 52 113 0.0 1.0 0.00 0.00 0.00 65 1013.0
20260504212703 53 96 1.0 2.0 0.00 0.00 0.00 63 1013.0
20260504212017 53 101 1.0 2.0 0.00 0.00 0.00 62 1012.9
20260504211116 53 111 1.0 2.0 0.00 0.00 0.00 61 1013.1
20260504210003 53 117 0.0 2.0 0.00 0.00 0.00 61 1013.0
20260504205403 53 101 0.0 1.0 0.00 0.00 0.00 60 1013.1
20260504204503 53 112 0.0 1.0 0.00 0.00 0.00 59 1013.1
20260504203603 53 136 1.0 2.0 0.00 0.00 0.00 59 1013.1
20260504202703 53 186 0.0 3.0 0.00 0.00 0.00 59 1013.3
20260504202016 53 177 0.0 2.0 0.00 0.00 0.00 60 1013.3
20260504200903 53 21 1.0 2.0 0.00 0.00 0.00 60 1013.3
20260504200003 53 62 1.0 2.0 0.00 0.00 0.00 59 1013.2
20260504195403 53 198 0.0 2.0 0.00 0.00 0.00 59 1013.3
20260504194718 54 212 0.0 2.0 0.00 0.00 0.00 59 1013.3
20260504193603 54 131 0.0 2.0 0.00 0.00 0.00 58 1013.2
20260504192703 55 149 1.0 4.0 0.00 0.00 0.00 58 1013.1
20260504191803 55 151 2.0 5.0 0.00 0.00 0.00 58 1013.1
20260504190903 54 150 2.0 6.0 0.00 0.00 0.00 60 1013.0
20260504190003 55 148 2.0 5.0 0.00 0.00 0.00 60 1013.0
20260504185403 55 150 3.0 6.0 0.00 0.00 0.00 62 1013.0
20260504184503 55 145 2.0 5.0 0.00 0.00 0.00 65 1012.9
20260504183603 56 150 3.0 6.0 0.00 0.00 0.00 66 1012.8
20260504182703 56 170 3.0 6.0 0.00 0.00 0.00 66 1012.8
20260504181803 56 181 3.0 6.0 0.00 0.00 0.00 65 1012.8
20260504181117 57 179 3.0 7.0 0.00 0.00 0.00 63 1012.7
20260504180003 57 165 4.0 7.0 0.00 0.00 0.00 62 1012.7
20260504175403 57 169 4.0 7.0 0.00 0.00 0.00 61 1012.6
20260504174503 58 183 4.0 7.0 0.00 0.00 0.00 59 1012.6
20260504173817 58 183 3.0 6.0 0.00 0.00 0.00 58 1012.6
20260504172918 58 180 4.0 7.0 0.00 0.00 0.00 56 1012.6
20260504171803 59 192 4.0 8.0 0.00 0.00 0.00 54 1012.6
20260504170903 59 197 3.0 7.0 0.00 0.00 0.00 55 1012.6
20260504160218 62 209 6.0 12.0 0.00 0.00 0.00 49 1012.8
20260504150903 64 215 8.0 14.0 0.00 0.00 0.00 49 1013.0
20260504140903 66 202 8.0 16.0 0.00 0.00 0.00 46 1013.6
20260504081803 63 258 4.0 9.0 0.00 0.00 0.00 49 1014.4
20260504080903 63 247 3.0 8.0 0.00 0.00 0.00 50 1014.2
20260504080217 64 269 2.0 6.0 0.00 0.00 0.00 50 1014.3
20260504050003 54 105 1.0 2.0 0.00 0.00 0.00 54 1013.2
20260504045403 53 111 2.0 2.0 0.00 0.00 0.00 54 1013.1
20260504044503 53 113 1.0 2.0 0.00 0.00 0.00 54 1012.9
20260504043818 53 112 1.0 2.0 0.00 0.00 0.00 54 1013.0
20260504042917 53 113 1.0 3.0 0.00 0.00 0.00 54 1012.9
20260504041803 53 108 2.0 3.0 0.00 0.00 0.00 54 1012.9
20260504040903 53 110 2.0 3.0 0.00 0.00 0.00 55 1013.1
20260504040003 53 108 2.0 2.0 0.00 0.00 0.00 55 1013.1
20260504035403 53 112 2.0 2.0 0.00 0.00 0.00 55 1013.1
20260504034503 53 113 2.0 3.0 0.00 0.00 0.00 55 1013.1